Weather History for Orlando International, FL

Change the Weather History Date:

Thursday, August 8, 2013

  Actual Average Record
Temperature  
Mean Temperature 84 °F 83 °F  
Max Temperature 91 °F 92 °F 98 °F (1987)
Min Temperature 77 °F 74 °F 64 °F (1938)
Degree Days  
Heating Degree Days 0 0  
Month to date heating degree days 0 0  
Since 1 June heating degree days 0 0  
Since 1 July heating degree days 0 0  
Cooling Degree Days 19 18  
Month to date cooling degree days 153 144  
Year to date cooling degree days 2063 1984  
Since 1 June cooling degree days 1191 1183  
Growing Degree Days 34 (Base 50)    
Moisture  
Dew Point 75 °F    
Average Humidity 77    
Maximum Humidity 97    
Minimum Humidity 56    
Precipitation  
Precipitation 0.06 in 0.25 in 3.56 in (1972)
Month to date precipitation 0.18 1.93  
Year to date precipitation 29.72 31.41  
Sea Level Pressure  
Sea Level Pressure 30.00 in    
Wind  
Wind Speed 8 mph (ESE)    
Max Wind Speed 25 mph    
Max Gust Speed 31 mph    
Visibility 10 miles    
Events Rain , Thunderstorm    
T = Trace of Precipitation, MM = Missing Value Source: NWS Daily Summary

Daily Weather History Graph

Daily Weather History Graph

Search for Another Location

Airport:

Trip Planner

Search our weather history database for the weather conditions in past years. The results will help you decide how hot, cold, wet, or windy it might be!

Date:

Astronomy

Aug. 08, 2013 Rise Set
Actual Time 6:51 AM EDT 8:10 PM EDT
Civil Twilight 6:26 AM EDT 8:35 PM EDT
Nautical Twilight 5:56 AM EDT 9:04 PM EDT
Astronomical Twilight 5:25 AM EDT 9:35 PM EDT
Moon 8:22 AM EDT (8/8) 9:04 PM EDT (8/8)
Length of Visible Light 14h 09m
Length of Day
13h 19m
Waxing Crescent, 3% of the Moon is Illuminated
Aug 8
Waxing Crescent
Aug 14
First Quarter
Aug 20
Full
Aug 28
Last Quarter
Sep 5
New

Hourly Weather History & Observations

Time (EDT) Temp. Heat Index Dew Point Humidity Pressure Visibility Wind Dir Wind Speed Gust Speed Precip Events Conditions
12:53 AM 79.0 °F - 75.9 °F 90% 29.99 in 10.0 mi SE 6.9 mph - N/A   Partly Cloudy
1:53 AM 79.0 °F - 75.9 °F 90% 29.99 in 10.0 mi SE 3.5 mph - N/A   Scattered Clouds
2:53 AM 78.1 °F - 75.9 °F 93% 29.98 in 10.0 mi ESE 3.5 mph - N/A   Clear
3:53 AM 78.1 °F - 75.9 °F 93% 29.98 in 10.0 mi ESE 3.5 mph - N/A   Clear
4:53 AM 77.0 °F - 75.9 °F 96% 29.97 in 10.0 mi SE 4.6 mph - N/A   Clear
5:53 AM 77.0 °F - 75.9 °F 96% 29.97 in 10.0 mi SE 3.5 mph - N/A   Clear
6:53 AM 77.0 °F - 75.0 °F 94% 29.99 in 10.0 mi ESE 4.6 mph - N/A   Mostly Cloudy
7:53 AM 79.0 °F - 77.0 °F 94% 29.99 in 10.0 mi East 3.5 mph - N/A   Scattered Clouds
8:53 AM 82.0 °F 90.2 °F 77.0 °F 85% 29.99 in 10.0 mi ESE 12.7 mph - N/A   Scattered Clouds
9:53 AM 84.0 °F 91.9 °F 75.0 °F 74% 30.01 in 10.0 mi ESE 11.5 mph - N/A   Scattered Clouds
10:53 AM 88.0 °F 96.5 °F 73.9 °F 63% 30.02 in 10.0 mi SE 11.5 mph - N/A   Scattered Clouds
11:53 AM 90.0 °F 96.4 °F 71.1 °F 54% 30.02 in 10.0 mi ESE 11.5 mph - N/A   Scattered Clouds
12:53 PM 91.0 °F 99.3 °F 73.0 °F 55% 30.01 in 10.0 mi ESE 9.2 mph - N/A   Scattered Clouds
1:53 PM 84.9 °F 93.3 °F 75.0 °F 72% 30.01 in 7.0 mi SSE 21.9 mph 28.8 mph 0.00 in Rain Light Rain
1:55 PM 82.4 °F 88.2 °F 73.4 °F 74% 30.02 in 7.0 mi South 25.3 mph 31.1 mph 0.00 in Rain , Thunderstorm Light Thunderstorms and Rain
2:05 PM 80.6 °F 85.4 °F 73.4 °F 79% 30.02 in 8.0 mi South 11.5 mph - 0.00 in Rain , Thunderstorm Light Thunderstorms and Rain
2:24 PM 84.2 °F 90.9 °F 73.4 °F 70% 30.02 in 10.0 mi SSE 8.1 mph - 0.00 in Rain Light Rain
2:53 PM 84.9 °F 93.3 °F 75.0 °F 72% 30.01 in 10.0 mi Variable 5.8 mph - 0.06 in Rain Light Rain
3:53 PM 89.1 °F 99.1 °F 75.0 °F 63% 29.98 in 10.0 mi ESE 9.2 mph - 0.00 in   Mostly Cloudy
4:53 PM 91.0 °F 99.3 °F 73.0 °F 55% 29.97 in 10.0 mi ESE 13.8 mph - N/A   Scattered Clouds
5:53 PM 90.0 °F 97.9 °F 73.0 °F 57% 29.97 in 10.0 mi East 12.7 mph - N/A   Scattered Clouds
6:53 PM 88.0 °F 95.6 °F 73.0 °F 61% 29.98 in 10.0 mi East 12.7 mph - N/A   Partly Cloudy
7:53 PM 84.0 °F 90.2 °F 73.0 °F 69% 29.99 in 10.0 mi East 13.8 mph - N/A   Scattered Clouds
8:53 PM 82.0 °F 87.9 °F 73.9 °F 76% 30.02 in 10.0 mi ESE 9.2 mph - N/A   Clear
9:53 PM 81.0 °F 86.2 °F 73.9 °F 79% 30.04 in 10.0 mi ESE 5.8 mph - N/A   Clear
10:53 PM 79.0 °F - 75.0 °F 88% 30.06 in 10.0 mi ESE 4.6 mph - N/A   Clear
11:53 PM 79.0 °F - 75.0 °F 88% 30.06 in 10.0 mi Calm Calm - N/A   Clear